SL-14 DEB, 45279

Orbit data source: Space-Track

SL-14 DEB, 45279 is space debris in LEO originally from a launch on Thu, 15 Aug 1991 UTC launched from the Plesetsk Missile And Space Complex (PKMTR). Debris objects in space refer to the collection of defunct objects orbiting the Earth. Examples of debris include non-operational satellites, rocket bodies, and fragments generated from explosions, collisions, or faulty payload assembly.

Loading next visibility...
Identifier
45279, 1991-056R
Orbit
LEO
Country
Flag of CISCIS
Related business
Manufacturer
Unknown
Mission
Spacecraft
Bus & Motor
Unknown
Mass
Unknown
Launch date (UTC)
1991-08-15 (34 years ago)
Launch vehicle
Unknown
Launch site
Plesetsk Missile And Space Complex (PKMTR)
Object type
Payload
Rocket body
Debris
Shape & HBR
Unknown shape, 0.1 m
Radar Cross Section
Small (<0.1 m²)

Expand to show TLE details & history
Last TLE update: 16 hours ago

TLE from 16 hours ago
0 SL-14 DEB
1 45279U 91056R   25352.89073121  .00000010  00000-0 -85455-5 0  9990
2 45279  82.5560 307.3157 0080610 111.6356 249.3368 13.01944090277179
Epoch: 2025-12-18T21:22Z
TLE epoch observation values (Epoch: 2025-12-18T21:22:39.176Z)
Latitude
-0.00007°
Longitude
-101.08729°
Altitude
1,279.417 km
Speed
7.206 km/s
True Right ascension
20h 29m 15s
True Declination
0° 00' 00"
Sunlit
Object was in daylight at epoch
Visualization orbit readout
Latitude
Unknown
Longitude
Unknown
Altitude
Unknown
Speed
Unknown
Apparent Right ascension
Unknown
Apparent Declination
Unknown
Sunlit
N/A
Visualization observer readout
Local Sidereal Time
12:45:44
Azimuth
Unknown
Elevation
Unknown
Doppler factor
Unknown
Orbital elements
Apogee altitude
1,313.252 km
Perigee altitude
1,190.243 km
Semi-major axis
7,629.885 km
Eccentricity
0.00806
Inclination
82.556°
RAAN
307.3157°
Arg. of periapsis
111.6356°
True anomaly
248.47559°
Mean anomaly
249.3368°
Eccentric anomaly
248.90589°
Mean motion
3.25661 °/min
Orbital period
110.54 mins
BSTAR
-0.0000085455
Loading maneuver chart data...
Computing Atmospheric mass density...
Loading historical data...
Loading historical data...
Loading historical data...
Loading historical data...
Loading historical data...
Loading historical data...
Loading historical data...

Documentation

Showing up to 5 results
|